• Join FlightAware (Why Join?)
  • Login
  • US Flag 
Rudolph Flight #1: Arrived! 
03:51AM EST


 

Airport Tracker/Info


-or-


 

Live Flight TrackerFlight Track Log ✈ N860BA ✈ 31-Aug-2013 ✈ KOAK - KPHL

Flight Track Log - Related Links

Times and Time Zones

All times are in EDT time to prevent confusion due to time zone crossing. See the N860BA flight status page for this flight to view local times or setup timezone preferences in your user account.

Time Position Orientation Groundspeed Altitude Reporting Facility
EDT Latitude Longitude Course Direction KTS MPH feet Rate Location/Type
08:05AM 37.7333 -122.2667 180° South 178 205 1,100  Level Northern Cal TRACON
08:06AM 37.7000 -122.2667 180° South 211 243 2,800 1,920 Climbing Northern Cal TRACON
08:07AM 37.6500 -122.2167 142° Southeast 247 284 5,000 2,220 Climbing Northern Cal TRACON
08:08AM 37.6236 -122.1717 127° Southeast 254 292 6,500 2,160 Climbing Oakland Center
08:09AM 37.6553 -122.0861 65° Northeast 268 308 8,600 1,920 Climbing Oakland Center
08:10AM 37.6931 -121.9931 63° Northeast 292 336 10,400 1,800 Climbing Oakland Center
08:11AM 37.7317 -121.8903 65° Northeast 314 361 12,200 1,680 Climbing Oakland Center
08:12AM 37.7744 -121.7817 63° Northeast 338 389 13,900 1,680 Climbing Oakland Center
08:13AM 37.8192 -121.6697 63° Northeast 352 405 15,700 1,740 Climbing Oakland Center
08:14AM 37.8622 -121.5556 64° Northeast 360 414 17,400 1,620 Climbing Oakland Center
08:15AM 37.9067 -121.4439 63° Northeast 366 421 19,000 1,620 Climbing Oakland Center
08:16AM 37.9517 -121.3278 64° Northeast 368 423 20,700 1,620 Climbing Oakland Center
08:17AM 37.9958 -121.2111 64° Northeast 369 425 22,300 1,020 Climbing Oakland Center
08:18AM 38.0417 -121.0911 64° Northeast 376 433 22,800 540 Climbing Oakland Center
08:19AM 38.0811 -120.9550 70° East 407 468 23,500 600 Climbing Oakland Center
08:20AM 38.0883 -120.8061 86° East 424 488 24,100 540 Climbing Oakland Center
08:21AM 38.0958 -120.6528 86° East 433 498 24,600 540 Climbing Oakland Center
08:22AM 38.1036 -120.4922 86° East 449 517 25,200 540 Climbing Oakland Center
08:23AM 38.1122 -120.3292 86° East 461 531 25,700 480 Climbing Oakland Center
08:24AM 38.1189 -120.1644 87° East 466 536 26,200 540 Climbing Oakland Center
08:25AM 38.1283 -119.9958 86° East 476 548 26,800 540 Climbing Oakland Center
08:26AM 38.1369 -119.7936 87° East 480 552 27,400 540 Climbing Oakland Center
08:27AM 38.1419 -119.6247 88° East 480 552 27,900 480 Climbing Oakland Center
08:28AM 38.1519 -119.4600 86° East 485 558 28,400 480 Climbing Oakland Center
08:29AM 38.1578 -119.2875 87° East 489 563 28,900 480 Climbing Oakland Center
08:30AM 38.1656 -119.1161 87° East 488 562 29,400 480 Climbing Oakland Center
08:31AM 38.1717 -118.9447 87° East 489 563 29,900 480 Climbing Oakland Center
08:32AM 38.1781 -118.7736 87° East 487 560 30,400 480 Climbing Oakland Center
08:33AM 38.1839 -118.6014 87° East 489 563 30,900 480 Climbing Oakland Center
08:34AM 38.1897 -118.4322 87° East 482 555 31,400 480 Climbing Oakland Center
08:35AM 38.1956 -118.2628 87° East 482 555 31,900 480 Climbing Oakland Center
08:36AM 38.2003 -118.0925 88° East 484 557 32,400 480 Climbing Oakland Center
08:37AM 38.2050 -117.9228 88° East 481 554 32,900 420 Climbing Oakland Center
08:38AM 38.2097 -117.7539 88° East 479 551 33,300 300 Climbing Oakland Center
08:39AM 38.2139 -117.5831 88° East 481 554 33,600 300 Climbing Oakland Center
08:40AM 38.2181 -117.4161 88° East 481 554 34,000 300 Climbing Oakland Center
08:41AM 38.2225 -117.2447 88° East 484 557 34,300 300 Climbing Oakland Center
08:42AM 38.2269 -117.0561 88° East 489 563 34,600 300 Climbing Oakland Center
08:43AM 38.2294 -116.8842 89° East 484 557 34,900 240 Climbing Oakland Center
08:44AM 38.2325 -116.7478 88° East 482 555 35,200 240 Climbing Oakland Center
08:45AM 38.2350 -116.5772 89° East 482 555 35,500 300 Climbing Oakland Center
08:46AM 38.2378 -116.4078 89° East 480 552 35,800 300 Climbing Oakland Center
08:47AM 38.2400 -116.2378 89° East 480 552 36,100 180 Climbing Oakland Center
08:48AM 38.2419 -116.0686 89° East 480 552 36,200 180 Climbing Oakland Center
08:49AM 38.2419 -115.8650 90° East 479 551 36,500 240 Climbing Salt Lake Center
08:50AM 38.2436 -115.6622 89° East 478 550 36,800 240 Climbing Salt Lake Center
08:51AM 38.2450 -115.4931 89° East 478 550 37,000 60 Climbing Salt Lake Center
08:52AM 38.2456 -115.3233 90° East 478 550 37,000  Level Salt Lake Center
08:53AM 38.2475 -115.1650 89° East 480 552 37,000  Level Salt Lake Center
08:54AM 38.2483 -114.9944 90° East 482 555 37,000  Level Salt Lake Center
08:55AM 38.2511 -114.8239 89° East 481 554 37,000  Level Salt Lake Center
08:56AM 38.2511 -114.6531 90° East 484 557 37,000  Level Salt Lake Center
08:57AM 38.2500 -114.4831 90° East 482 555 37,000  Level Salt Lake Center
08:58AM 38.2569 -114.3131 87° East 481 554 37,000  Level Salt Lake Center
08:59AM 38.2731 -114.1442 83° East 480 552 37,000  Level Salt Lake Center
09:00AM 38.2864 -113.9756 84° East 480 552 37,000  Level Salt Lake Center
09:01AM 38.3006 -113.8064 84° East 481 554 37,000  Level Salt Lake Center
09:02AM 38.3136 -113.6369 84° East 481 554 37,000  Level Salt Lake Center
09:03AM 38.3269 -113.4681 84° East 480 552 37,000  Level Salt Lake Center
09:04AM 38.3400 -113.2986 84° East 479 551 37,000  Level Salt Lake Center
09:05AM 38.3536 -113.1278 84° East 482 555 37,000  Level Salt Lake Center
09:06AM 38.3708 -112.9597 83° East 480 552 37,000  Level Salt Lake Center
09:07AM 38.4028 -112.7931 76° East 482 555 37,000  Level Salt Lake Center
09:08AM 38.4336 -112.6272 77° East 480 552 37,000  Level Salt Lake Center
09:09AM 38.4644 -112.4600 77° East 483 556 37,000  Level Salt Lake Center
09:10AM 38.4936 -112.2914 77° East 485 558 37,000  Level Salt Lake Center
09:11AM 38.5239 -112.1250 77° East 482 555 37,000  Level Salt Lake Center
09:12AM 38.5594 -111.9242 77° East 483 556 37,000  Level Salt Lake Center
09:13AM 38.5889 -111.7575 77° East 481 554 37,000  Level Salt Lake Center
09:14AM 38.6161 -111.5897 78° East 482 555 37,000  Level Salt Lake Center
09:15AM 38.6458 -111.4231 77° East 482 555 37,000  Level Salt Lake Center
09:16AM 38.6736 -111.2542 78° East 484 557 37,000  Level Salt Lake Center
09:17AM 38.7028 -111.0881 77° East 481 554 37,000  Level Salt Lake Center
09:18AM 38.7286 -110.9250 78° East 482 555 37,000  Level Salt Lake Center
09:19AM 38.7556 -110.7639 78° East 482 555 37,000  Level Salt Lake Center
09:20AM 38.7867 -110.5761 78° East 483 556 37,000  Level Salt Lake Center
09:21AM 38.8103 -110.4136 79° East 483 556 37,000  Level Salt Lake Center
09:22AM 38.8344 -110.2519 79° East 484 557 37,000  Level Salt Lake Center
09:23AM 38.8614 -110.0608 80° East 487 560 37,000  Level Salt Lake Center
09:24AM 38.8844 -109.8992 80° East 485 558 37,000  Level Salt Lake Center
09:25AM 38.9117 -109.7089 80° East 486 559 37,000  Level Salt Lake Center
09:26AM 38.9347 -109.5447 80° East 488 562 37,000  Level Salt Lake Center
09:27AM 38.9567 -109.3825 80° East 486 559 37,000  Level Salt Lake Center
09:28AM 38.9831 -109.1919 80° East 487 560 37,000  Level Salt Lake Center
09:29AM 39.0050 -109.0286 80° East 487 560 37,000  Level Salt Lake Center
09:30AM 39.0261 -108.8642 81° East 490 564 37,000  Level Salt Lake Center
09:32AM 39.0522 -108.6733 80° East 489 563 37,000  Level Salt Lake Center
09:33AM 39.0731 -108.5100 81° East 488 562 37,000  Level Salt Lake Center
09:34AM 39.1028 -108.2861 80° East 496 571 37,000  Level Denver Center
09:35AM 39.1247 -108.1217 80° East 489 563 37,000  Level Denver Center
09:36AM 39.1481 -107.9306 81° East 485 558 37,000  Level Denver Center
09:37AM 39.1678 -107.7667 81° East 485 558 37,000  Level Denver Center
09:38AM 39.1925 -107.5736 81° East 490 564 37,000  Level Denver Center
09:39AM 39.2125 -107.4089 81° East 488 562 37,000  Level Denver Center
09:40AM 39.2311 -107.2447 82° East 485 558 37,000  Level Denver Center
09:41AM 39.2539 -107.0528 81° East 485 558 37,000  Level Denver Center
09:42AM 39.2728 -106.8892 81° East 483 556 37,000  Level Denver Center
09:43AM 39.2931 -106.7253 81° East 480 552 37,000  Level Denver Center
09:44AM 39.3125 -106.5364 82° East 478 550 37,000  Level Denver Center
09:45AM 39.3303 -106.3733 82° East 479 551 37,000  Level Denver Center
09:46AM 39.3489 -106.2092 82° East 481 554 37,000  Level Denver Center
09:47AM 39.3681 -106.0372 82° East 478 550 37,000  Level Denver Center
09:48AM 39.3869 -105.8672 82° East 480 552 37,000  Level Denver Center
09:49AM 39.4050 -105.6964 82° East 480 552 37,000  Level Denver Center
09:50AM 39.4256 -105.5231 81° East 490 564 37,000  Level Denver Center
09:51AM 39.4414 -105.3533 83° East 477 549 37,000  Level Denver Center
09:52AM 39.4619 -105.1481 83° East 483 556 37,000  Level Denver Center
09:53AM 39.4786 -104.9789 83° East 477 549 37,000  Level Denver Center
09:54AM 39.4978 -104.7750 83° East 481 554 37,000  Level Denver Center
09:55AM 39.5122 -104.6061 84° East 492 566 37,000  Level Denver Center
09:56AM 39.5297 -104.4353 82° East 492 566 37,000  Level Denver Center
09:57AM 39.5464 -104.2658 83° East 480 552 37,000  Level Denver Center
09:58AM 39.5647 -104.0578 83° East 486 559 37,000  Level Denver Center
09:59AM 39.5800 -103.8839 83° East 489 563 37,000  Level Denver Center
10:00AM 39.5958 -103.7139 83° East 473 544 37,000  Level Denver Center
10:01AM 39.6119 -103.5414 83° East 481 554 37,000  Level Denver Center
10:02AM 39.6258 -103.3675 84° East 485 558 37,000  Level Denver Center
10:03AM 39.6411 -103.1931 83° East 488 562 37,000  Level Denver Center
10:04AM 39.6553 -103.0181 84° East 489 563 37,000  Level Denver Center
10:06AM 39.6700 -102.8461 84° East 483 556 37,000  Level Denver Center
10:07AM 39.6844 -102.6581 84° East 489 563 37,000  Level Denver Center
10:08AM 39.6994 -102.4631 84° East 487 560 37,000  Level Denver Center
10:09AM 39.7117 -102.2953 85° East 487 560 37,000  Level Denver Center
10:10AM 39.7242 -102.1292 84° East 484 557 37,000  Level Denver Center
10:11AM 39.7383 -101.9333 85° East 487 560 37,000  Level Denver Center
10:12AM 39.7506 -101.7650 85° East 491 565 37,000  Level Denver Center
10:13AM 39.7644 -101.5697 85° East 487 560 37,000  Level Denver Center
10:14AM 39.7758 -101.4014 85° East 489 563 37,000  Level Denver Center
10:15AM 39.7897 -101.2031 85° East 494 568 37,000  Level Denver Center
10:16AM 39.8000 -101.0339 85° East 493 567 37,000  Level Denver Center
10:17AM 39.8111 -100.8656 85° East 491 565 37,000  Level Denver Center
10:18AM 39.8225 -100.6667 86° East 494 568 37,000  Level Denver Center
10:19AM 39.8322 -100.4983 86° East 492 566 37,000  Level Denver Center
10:20AM 39.8447 -100.3019 85° East 490 564 37,000  Level Denver Center
10:21AM 39.8553 -100.1225 86° East 493 567 37,000  Level Denver Center
10:22AM 39.8650 -99.9467 86° East 490 564 37,000  Level Denver Center
10:23AM 39.8736 -99.7683 86° East 494 568 37,000  Level Denver Center
10:24AM 39.8839 -99.5906 86° East 494 568 37,000  Level Denver Center
10:25AM 39.8944 -99.3775 86° East 494 568 37,000  Level Denver Center
10:26AM 39.9036 -99.2000 86° East 493 567 37,000  Level Denver Center
10:27AM 39.9119 -99.0231 86° East 494 568 37,000  Level Minneapolis Center
10:28AM 39.9203 -98.8447 86° East 495 570 37,000  Level Minneapolis Center
10:29AM 39.9283 -98.6664 87° East 495 570 37,000  Level Minneapolis Center
10:30AM 39.9372 -98.4511 87° East 497 572 37,000  Level Minneapolis Center
10:31AM 39.9442 -98.2744 87° East 494 568 37,000  Level Minneapolis Center
10:32AM 39.9511 -98.0947 87° East 496 571 37,000  Level Minneapolis Center
10:33AM 39.9575 -97.9161 87° East 496 571 37,000  Level Minneapolis Center
10:34AM 39.9644 -97.7350 87° East 499 574 37,000  Level Minneapolis Center
10:35AM 39.9708 -97.5550 87° East 500 575 37,000  Level Minneapolis Center
10:36AM 39.9764 -97.3753 88° East 498 573 37,000  Level Minneapolis Center
10:37AM 39.9822 -97.1792 88° East 499 574 37,000  Level Minneapolis Center
10:38AM 39.9889 -96.9997 87° East 498 573 37,000  Level Minneapolis Center
10:39AM 39.9933 -96.8192 88° East 500 575 37,000  Level Minneapolis Center
10:41AM 39.9992 -96.6022 88° East 500 575 37,000  Level Minneapolis Center
10:42AM 40.0039 -96.4219 88° East 500 575 37,000  Level Minneapolis Center
10:42AM 40.0078 -96.2892 88° East 500 575 37,000  Level Kansas City Center
10:43AM 40.0125 -96.1239 88° East 498 573 37,000  Level Kansas City Center
10:44AM 40.0167 -95.9214 88° East 498 573 37,000  Level Kansas City Center
10:45AM 40.0206 -95.7464 88° East 502 578 37,000  Level Kansas City Center
10:46AM 40.0231 -95.5717 89° East 502 578 37,000  Level Kansas City Center
10:47AM 40.0264 -95.3681 89° East 501 577 37,000  Level Kansas City Center
10:48AM 40.0289 -95.1953 89° East 497 572 37,000  Level Kansas City Center
10:49AM 40.0314 -94.9939 89° East 496 571 37,000  Level Kansas City Center
10:50AM 40.0331 -94.8203 89° East 497 572 37,000  Level Kansas City Center
10:52AM 40.0353 -94.6178 89° East 498 573 37,000  Level Kansas City Center
10:53AM 40.0369 -94.4444 89° East 497 572 37,000  Level Kansas City Center
10:54AM 40.0372 -94.2706 90° East 499 574 37,000  Level Kansas City Center
10:55AM 40.0386 -94.0678 89° East 497 572 37,000  Level Kansas City Center
10:56AM 40.0403 -93.8886 89° East 499 574 37,000  Level Kansas City Center
10:57AM 40.0522 -93.7119 85° East 497 572 37,000  Level Kansas City Center
10:58AM 40.0644 -93.5356 85° East 494 568 37,000  Level Kansas City Center
10:59AM 40.0750 -93.3572 86° East 496 571 37,000  Level Kansas City Center
11:00AM 40.0872 -93.1453 86° East 495 570 37,000  Level Kansas City Center
11:01AM 40.0992 -92.9833 84° East 492 566 37,000  Level Kansas City Center
11:02AM 40.1097 -92.7839 86° East 493 567 37,000  Level Kansas City Center
11:03AM 40.1186 -92.6117 86° East 495 570 37,000  Level Kansas City Center
11:04AM 40.1297 -92.4103 86° East 498 573 37,000  Level Kansas City Center
11:05AM 40.1400 -92.2344 86° East 495 570 37,000  Level Kansas City Center
11:06AM 40.1519 -92.0542 85° East 500 575 37,000  Level Kansas City Center
11:07AM 40.1594 -91.8794 87° East 494 568 37,000  Level Kansas City Center
11:08AM 40.1689 -91.6647 87° East 498 573 37,000  Level Kansas City Center
11:09AM 40.1778 -91.4861 86° East 497 572 37,000  Level Kansas City Center
11:10AM 40.1861 -91.3083 86° East 497 572 37,000  Level Kansas City Center
11:11AM 40.1942 -91.1306 87° East 496 571 37,000  Level Kansas City Center
11:12AM 40.2011 -90.9425 87° East 496 571 37,000  Level Kansas City Center
11:13AM 40.2081 -90.7625 87° East 496 571 37,000  Level Kansas City Center
11:14AM 40.2175 -90.5842 86° East 495 570 37,000  Level Kansas City Center
11:15AM 40.2564 -90.3794 76° East 486 559 37,000  Level Kansas City Center
11:16AM 40.2692 -90.2719 81° East 491 565 37,000  Level Chicago Center
11:17AM 40.2878 -90.0947 82° East 493 567 37,000  Level Chicago Center
11:18AM 40.3089 -89.9156 81° East 494 568 37,000  Level Chicago Center
11:19AM 40.3283 -89.7417 82° East 497 572 37,000  Level Chicago Center
11:20AM 40.3489 -89.5661 81° East 495 570 37,000  Level Chicago Center
11:21AM 40.3567 -89.3511 87° East 503 579 37,000  Level Chicago Center
11:22AM 40.3581 -89.1742 89° East 492 566 37,000  Level Chicago Center
11:23AM 40.3597 -88.9969 89° East 490 564 37,000  Level Chicago Center
11:24AM 40.3611 -88.8183 89° East 491 565 37,000  Level Chicago Center
11:25AM 40.3631 -88.6397 89° East 491 565 37,000  Level Chicago Center
11:26AM 40.3622 -88.4617 90° East 489 563 37,000  Level Chicago Center
11:27AM 40.3622 -88.2492 90° East 489 563 37,000  Level Chicago Center
11:28AM 40.3633 -88.0714 89° East 492 566 37,000  Level Chicago Center
11:29AM 40.3636 -87.8956 90° East 488 562 37,000  Level Chicago Center
11:30AM 40.3628 -87.7192 90° East 488 562 37,000  Level Chicago Center
11:31AM 40.3508 -87.5425 95° East 489 563 37,000  Level Chicago Center
11:32AM 40.3375 -87.3383 95° East 486 559 37,000  Level Chicago Center
11:33AM 40.3411 -87.1603 88° East 488 562 37,000  Level Chicago Center
11:34AM 40.3406 -86.9811 90° East 491 565 37,000  Level Chicago Center
11:35AM 40.3397 -86.8039 90° East 489 563 37,000  Level Chicago Center
11:36AM 40.3381 -86.6261 91° East 488 562 37,000  Level Chicago Center
11:37AM 40.3367 -86.4475 91° East 489 563 37,000  Level Chicago Center
11:38AM 40.3353 -86.2700 91° East 487 560 37,000  Level Chicago Center
11:40AM 40.3331 -86.0908 91° East 490 564 37,000  Level Chicago Center
11:41AM 40.3303 -85.8778 91° East 487 560 37,000  Level Chicago Center
11:42AM 40.3272 -85.7006 91° East 487 560 37,000  Level Chicago Center
11:43AM 40.3247 -85.5250 91° East 483 556 37,000  Level Chicago Center
11:44AM 40.3219 -85.3497 91° East 482 555 37,000  Level Chicago Center
11:45AM 40.3167 -85.1369 92° East 486 559 37,000  Level Indianapolis Center
11:46AM 40.3133 -84.9608 91° East 486 559 37,000  Level Indianapolis Center
11:47AM 40.3097 -84.7692 91° East 490 564 37,000  Level Indianapolis Center
11:48AM 40.3042 -84.5928 92° East 487 560 37,000  Level Indianapolis Center
11:49AM 40.2992 -84.4147 92° East 485 558 37,000  Level Indianapolis Center
11:50AM 40.2947 -84.2369 92° East 488 562 37,000  Level Indianapolis Center
11:51AM 40.2892 -84.0589 92° East 486 559 37,000  Level Indianapolis Center
11:52AM 40.2931 -83.8811 88° East 488 562 37,000  Level Indianapolis Center
11:53AM 40.2978 -83.7025 88° East 488 562 37,000  Level Indianapolis Center
11:54AM 40.3025 -83.5231 88° East 488 562 37,000  Level Indianapolis Center
11:55AM 40.3064 -83.3431 88° East 490 564 37,000  Level Indianapolis Center
11:56AM 40.3092 -83.1642 89° East 488 562 37,000  Level Indianapolis Center
11:57AM 40.3133 -82.9861 88° East 486 559 37,000  Level Indianapolis Center
11:58AM 40.3164 -82.8117 89° East 482 555 37,000  Level Indianapolis Center
11:59AM 40.3192 -82.6042 89° East 485 558 37,000  Level Indianapolis Center
12:01PM 40.3247 -82.2478 89° East 486 559 37,000  Level Indianapolis Center
12:02PM 40.3267 -82.0678 89° East 490 564 37,000  Level Indianapolis Center
12:03PM 40.3281 -81.8897 89° East 488 562 37,000  Level Indianapolis Center
12:04PM 40.3300 -81.7094 89° East 491 565 37,000  Level Indianapolis Center
12:05PM 40.3306 -81.5281 90° East 494 568 37,000  Level Indianapolis Center
12:06PM 40.3317 -81.3478 89° East 494 568 37,000  Level Indianapolis Center
12:07PM 40.3328 -81.1667 89° East 494 568 37,000  Level Indianapolis Center
12:08PM 40.3350 -81.0625 88° East 490 564 37,000  Level Cleveland Center
12:09PM 40.3356 -80.8853 90° East 490 564 37,000  Level Cleveland Center
12:10PM 40.3361 -80.7056 90° East 495 570 37,000  Level Cleveland Center
12:11PM 40.3339 -80.5286 91° East 495 570 37,000  Level Cleveland Center
12:12PM 40.3275 -80.3325 92° East 490 564 37,000  Level Cleveland Center
12:13PM 40.3311 -80.1528 88° East 490 564 37,000  Level Cleveland Center
12:14PM 40.3303 -79.9647 90° East 495 570 37,000  Level Cleveland Center
12:15PM 40.3292 -79.7850 90° East 495 570 37,000  Level Cleveland Center
12:16PM 40.3278 -79.6056 91° East 495 570 37,000  Level Cleveland Center
12:17PM 40.3261 -79.4203 91° East 495 570 37,000  Level Cleveland Center
12:18PM 40.3222 -79.2569 92° East 495 570 37,000  Level Cleveland Center
12:19PM 40.3178 -79.0719 92° East 495 570 37,000 -180 Level Cleveland Center
12:20PM 40.3153 -78.8894 91° East 495 570 36,700 -1,440 Descending Cleveland Center
12:21PM 40.3144 -78.7017 90° East 495 570 34,200 -2,640 Descending Cleveland Center
12:22PM 40.3153 -78.5108 90° East 505 581 31,500 -2,700 Descending Cleveland Center
12:23PM 40.3139 -78.3311 91° East 505 581 28,800 -2,700 Descending Cleveland Center
12:24PM 40.3122 -78.1517 91° East 495 570 26,100 -1,380 Descending Cleveland Center
12:26PM 40.3114 -77.7533 90° East 461 531 24,400 -900 Descending New York Center
12:27PM 40.3086 -77.5869 91° East 461 531 23,300 -1,140 Descending New York Center
12:28PM 40.3081 -77.4125 90° East 461 531 22,200 -1,140 Descending New York Center
12:29PM 40.3031 -77.2406 92° East 467 537 21,100 -1,140 Descending New York Center
12:30PM 40.2997 -77.0686 91° East 467 537 20,000 -600 Descending New York Center
12:31PM 40.2644 -76.9078 106° East 461 531 20,000 -540 Level New York Center
12:32PM 40.2325 -76.7608 106° East 461 531 19,000 -1,860 Descending New York Center
12:33PM 40.1928 -76.5942 107° East 447 514 16,400 -2,400 Descending New York Center
12:34PM 40.1567 -76.4392 107° East 441 507 14,300 -1,920 Descending New York Center
12:35PM 40.1289 -76.3228 107° East 429 494 12,600 -1,800 Descending New York Center
12:36PM 40.1131 -76.1694 98° East 401 461 10,700 -1,620 Descending New York Center
12:37PM 40.1042 -76.0411 95° East 339 390 9,400 -1,560 Descending New York Center
12:38PM 40.0964 -75.9322 95° East 309 356 7,600 -1,680 Descending New York Center
12:39PM 40.0842 -75.8308 99° East 309 356 6,100 -780 Descending New York Center
12:40PM 40.0850 -75.7142 89° East 302 348 6,100 -120 Level New York Center
12:41PM 40.0867 -75.6219 89° East 290 334 5,900 -600 Descending New York Center
12:42PM 40.0872 -75.5081 90° East 285 328 5,000 -900 Descending New York Center
12:43PM 40.0892 -75.4078 89° East 280 322 4,200 -480 Descending New York Center
12:44PM 40.0889 -75.3075 90° East 280 322 4,100 -120 Descending New York Center
12:45PM 40.0644 -75.2381 115° Southeast 251 289 4,000  Descending New York Center
12:46PM 40.0114 -75.2075 156° South 195 224 4,100  Climbing New York Center
12:47PM 39.9581 -75.1850 162° South 205 236 4,100  Level New York Center
12:48PM 39.9047 -75.1600 160° South 205 236 4,100 -240 Level New York Center
12:49PM 39.8594 -75.1411 162° South 200 230 3,700 -1,140 Descending New York Center
12:50PM 39.8333 -75.1833 231° Southwest 136 157 1,500 -1,320 Descending Philadelphia TRACON
12:51PM 39.8500 -75.2167 303° West 152 175 700 -840 Descending Philadelphia TRACON
12:53PM 39.8667 -75.2333 311° West  Level FlightAware Approximate
01:00PM 39.8722 -75.2409 311° West  Level Estimated